Probability
6 6 3 3 3 3 3 3 3 3 3 0 0 0 0 0 0 0 3 0 0 0 0 0 0 0 0 0 0 0 0 0 0 0 0 0 0 0 0 0 0 0 0
10 6 6 6 6 3 6 3 3 3 3 0 0 0 0 0 0 0 3 0 0 0 0 0 0 0 0 0 0 0 0 0 0 0 0 0 0 0 0 0 0 0 0
10 6 6 6 6 6 3 3 3 3 3 3 3 0 0 0 0 0 0 0 0 0 0 0 0 0 0 0 0 0 0 0 0 0 0 0 0 0 0 0 0 0 0
6 6 3 3 6 6 6 3 3 3 3 3 3 3 0 0 0 0 0 0 0 0 0 0 0 0 0 0 0 0 0 0 0 0 0 0 0 0 0 0 0 0 0
3 6 6 3 3 3 3 3 3 3 0 3 3 3 3 0 0 0 0 0 0 0 0 0 0 0 0 0 0 0 0 0 0 0 0 0 0 0 0 0 0 0 0
0 3 3 3 3 3 3 3 3 3 0 3 3 3 3 3 0 0 0 0 0 0 3 0 0 0 0 0 0 0 0 0 0 0 0 0 0 0 0 0 0 0 0
0 0 3 0 0 3 3 3 3 3 3 3 6 3 0 0 0 0 0 0 3 3 3 3 0 0 0 0 0 0 0 0 0 0 0 0 0 0 0 0 0 0 0
0 0 0 0 0 0 0 3 3 3 3 3 3 0 3 0 0 0 0 0 0 3 3 3 3 3 0 0 0 0 0 0 0 0 0 0 0 0 0 0 0 0 0
0 0 0 0 0 0 0 0 0 3 3 3 3 3 0 0 0 0 0 0 0 0 3 3 3 3 0 0 0 0 0 0 0 0 0 0 0 0 0 0 0 0 0
0 0 0 0 0 0 0 0 0 0 0 0 3 3 3 0 0 0 0 0 0 0 0 0 0 0 0 0 0 0 0 0 0 0 0 0 0 0 0 0 0 0 0
0 0 0 0 0 0 0 0 0 0 0 0 0 0 3 3 0 0 0 0 0 0 0 0 0 0 0 0 0 0 0 0 0 0 0 0 0 0 0 0 0 0 0
3 3 0 0 0 0 0 0 0 0 0 0 0 0 0 0 0 0 0 0 0 0 0 0 0 0 0 0 0 0 0 0 0 0 0 0 0 0 0 0 0 0 0
3 3 0 0 0 0 0 0 0 0 0 0 0 0 0 0 0 0 0 0 0 0 0 0 0 0 0 0 0 0 0 0 0 0 0 0 0 0 0 0 0 0 0
0 3 0 0 0 0 0 0 0 0 0 0 0 0 0 0 0 0 0 0 0 0 0 0 0 0 0 0 0 0 0 0 0 0 0 0 0 0 0 0 0 0 0
0 0 0 0 0 0 0 0 0 0 0 0 0 0 0 0 0 0 0 0 0 0 0 0 0 0 0 0 0 0 0 0 0 0 0 0 0 0 0 0 0 0 0
0 0 0 0 0 0 0 0 0 0 0 0 0 0 0 0 0 0 0 0 0 0 0 0 0 0 0 0 0 0 0 0 0 0 0 0 0 0 0 0 0 0 0
0 0 0 0 0 0 0 0 0 0 0 0 0 0 0 0 0 0 0 0 0 0 0 0 0 0 0 0 0 0 0 0 0 0 0 0 0 0 0 0 0 0 0
0 0 0 0 0 0 0 0 0 0 0 0 0 0 0 0 0 0 0 0 0 0 0 0 0 0 0 0 0 0 0 0 0 0 0 0 0 0 0 0 0 0 0
0 0 0 0 0 0 0 0 0 0 0 0 0 0 0 0 0 0 0 0 0 0 0 0 0 0 0 0 0 0 0 0 0 0 0 0 0 0 0 0 0 0 0
0 0 0 0 0 0 0 0 0 0 0 0 0 0 0 0 0 0 0 0 0 0 0 0 0 0 0 0 0 0 0 0 0 0 0 0 0 0 0 0 0 0 0
0 0 0 0 0 0 0 0 0 0 0 0 0 0 0 0 0 0 0 0 0 0 0 0 0 0 0 0 0 0 0 0 0 0 0 0 0 0 0 0 0 0 0
0 0 0 0 0 0 0 0 0 0 0 0 0 0 0 0 0 0 0 0 0 0 0 0 0 0 0 0 0 0 0 0 0 0 0 0 0 0 0 0 0 0 0
0 0 0 0 0 0 0 0 0 0 0 0 0 0 0 0 0 0 0 0 0 0 0 0 0 0 0 0 0 0 0 0 0 0 0 0 0 0 0 0 0 0 0
0 0 0 0 0 0 0 0 0 0 0 0 0 0 0 0 0 0 0 0 0 0 0 0 0 0 0 0 0 0 0 0 0 0 0 0 0 0 0 0 0 0 0
0 0 0 0 0 0 0 0 0 0 0 0 0 0 0 0 0 0 0 0 0 0 0 0 0 0 0 0 0 0 0 0 0 0 0 0 0 0 0 0 0 0 0
0 0 0 0 0 0 0 0 0 0 0 0 0 0 0 0 0 0 0 0 0 0 0 0 0 0 0 0 0 0 0 0 0 0 0 0 0 0 0 0 0 0 0
Height
5810 5809 5808 5807 5807 5806 5804 5803 5802 5801 5800 5798 5796 5795 5793 5792 5790 5788 5787 5786 5785 5784 5783 5782 5782 5781 5781 5780 5779 5778 5778 5777 5777 5777 5776 5776 5775 5775 5774 5774 5775 5775 5775
5805 5804 5803 5802 5801 5800 5799 5798 5797 5796 5794 5792 5791 5789 5787 5785 5784 5782 5781 5780 5779 5778 5777 5776 5775 5775 5774 5773 5773 5772 5772 5771 5771 5771 5770 5769 5769 5769 5768 5769 5769 5769 5770
5800 5799 5798 5797 5796 5795 5794 5792 5791 5790 5788 5786 5785 5783 5781 5780 5778 5776 5775 5773 5772 5771 5770 5769 5768 5767 5767 5767 5766 5765 5765 5764 5764 5764 5764 5763 5763 5762 5762 5762 5763 5764 5764
5795 5794 5793 5791 5790 5789 5788 5786 5785 5784 5782 5780 5779 5777 5775 5774 5772 5770 5768 5767 5765 5764 5763 5762 5761 5760 5760 5759 5759 5758 5758 5757 5757 5757 5757 5757 5757 5756 5756 5756 5757 5757 5758
5789 5788 5787 5786 5784 5783 5781 5780 5779 5777 5776 5774 5773 5771 5769 5768 5766 5764 5762 5760 5759 5758 5756 5755 5754 5753 5752 5752 5752 5751 5751 5751 5750 5750 5750 5750 5750 5750 5751 5750 5751 5751 5751
5783 5782 5781 5779 5778 5777 5775 5774 5772 5771 5769 5768 5766 5765 5763 5761 5759 5757 5755 5754 5753 5751 5750 5749 5748 5746 5745 5745 5744 5744 5744 5744 5744 5744 5744 5743 5744 5744 5744 5744 5745 5745 5745
5776 5775 5774 5773 5772 5770 5769 5767 5765 5764 5762 5761 5759 5758 5756 5754 5752 5750 5748 5747 5746 5744 5743 5742 5740 5739 5738 5737 5737 5737 5737 5737 5737 5737 5737 5737 5737 5737 5738 5738 5738 5738 5739
5770 5769 5768 5766 5765 5763 5762 5760 5758 5757 5755 5753 5752 5750 5748 5747 5745 5743 5741 5740 5738 5737 5736 5734 5733 5731 5730 5729 5729 5729 5729 5730 5730 5730 5731 5730 5730 5730 5731 5731 5731 5732 5732
5763 5762 5761 5759 5758 5756 5754 5753 5751 5750 5748 5746 5745 5743 5741 5739 5737 5735 5733 5732 5731 5729 5728 5726 5724 5723 5722 5722 5721 5722 5722 5722 5722 5723 5723 5723 5723 5723 5724 5724 5725 5725 5726
5755 5754 5753 5752 5750 5749 5747 5745 5744 5742 5740 5739 5737 5735 5733 5731 5729 5727 5725 5724 5723 5721 5720 5718 5716 5715 5714 5713 5713 5713 5714 5714 5715 5715 5715 5716 5716 5716 5717 5717 5718 5718 5719
5747 5746 5745 5744 5742 5741 5739 5738 5736 5735 5733 5731 5729 5727 5725 5723 5721 5719 5717 5716 5714 5713 5711 5710 5708 5707 5706 5705 5705 5705 5705 5706 5706 5707 5707 5708 5708 5709 5709 5709 5710 5710 5711
5739 5738 5737 5735 5734 5733 5731 5730 5728 5727 5725 5723 5721 5719 5717 5715 5713 5711 5709 5708 5706 5705 5703 5702 5700 5699 5698 5697 5697 5697 5697 5697 5697 5698 5699 5700 5700 5701 5701 5702 5702 5702 5703
5730 5729 5728 5727 5725 5724 5723 5721 5720 5718 5717 5715 5713 5711 5709 5707 5705 5703 5701 5699 5698 5696 5695 5694 5692 5691 5690 5689 5688 5688 5688 5688 5689 5690 5691 5691 5692 5693 5693 5694 5694 5694 5695
5721 5720 5719 5718 5717 5715 5714 5712 5711 5709 5708 5706 5705 5703 5701 5699 5697 5695 5693 5691 5690 5688 5687 5685 5684 5683 5681 5681 5680 5679 5679 5679 5680 5681 5682 5683 5683 5684 5684 5685 5685 5686 5686
5712 5711 5710 5709 5708 5706 5705 5703 5702 5700 5699 5698 5696 5694 5693 5691 5689 5687 5685 5683 5682 5680 5679 5678 5676 5675 5673 5672 5671 5671 5671 5671 5672 5672 5673 5674 5675 5675 5676 5676 5676 5677 5677
5703 5702 5701 5700 5698 5697 5695 5694 5692 5691 5689 5688 5687 5685 5684 5682 5680 5678 5676 5675 5673 5672 5670 5669 5668 5667 5666 5664 5663 5662 5662 5662 5663 5664 5664 5665 5666 5666 5667 5667 5667 5668 5668
5694 5692 5691 5690 5689 5687 5686 5684 5683 5681 5679 5678 5677 5676 5674 5673 5671 5669 5667 5666 5664 5663 5661 5660 5659 5658 5657 5656 5655 5654 5654 5654 5654 5655 5655 5656 5657 5657 5657 5657 5658 5658 5658
5684 5683 5682 5680 5679 5678 5676 5674 5673 5672 5670 5668 5667 5665 5664 5663 5661 5659 5658 5656 5655 5653 5652 5651 5650 5649 5648 5647 5646 5646 5645 5645 5645 5646 5646 5647 5647 5647 5647 5648 5648 5648 5649
5675 5674 5672 5671 5669 5668 5666 5664 5663 5661 5660 5658 5657 5655 5654 5652 5651 5649 5648 5646 5645 5644 5643 5642 5641 5640 5639 5638 5637 5636 5636 5636 5636 5636 5637 5637 5637 5637 5637 5638 5638 5638 5638
5666 5664 5663 5661 5660 5658 5656 5654 5653 5651 5650 5648 5647 5645 5644 5642 5640 5639 5637 5636 5635 5633 5632 5631 5630 5629 5629 5628 5627 5626 5626 5626 5626 5626 5626 5626 5626 5627 5627 5627 5627 5627 5628
5657 5656 5654 5652 5650 5648 5646 5644 5643 5641 5640 5638 5637 5635 5633 5631 5630 5629 5627 5625 5624 5622 5621 5620 5619 5619 5618 5617 5617 5616 5615 5615 5616 5616 5615 5615 5615 5616 5616 5616 5616 5616 5617
5649 5647 5645 5643 5640 5638 5636 5634 5632 5631 5629 5627 5626 5624 5622 5620 5619 5618 5616 5615 5613 5612 5610 5609 5608 5608 5607 5606 5606 5605 5605 5605 5605 5605 5604 5604 5604 5604 5604 5604 5604 5605 5605
5639 5637 5635 5633 5631 5628 5626 5624 5622 5620 5618 5616 5615 5613 5611 5609 5608 5606 5605 5603 5602 5601 5599 5598 5597 5596 5595 5594 5594 5593 5593 5593 5593 5593 5593 5593 5593 5593 5593 5593 5593 5593 5593
5630 5628 5625 5623 5620 5618 5616 5613 5611 5609 5607 5605 5603 5602 5600 5598 5596 5595 5594 5592 5591 5590 5588 5587 5586 5585 5584 5583 5582 5581 5581 5581 5580 5580 5580 5581 5581 5580 5581 5581 5581 5581 5581
5620 5617 5615 5612 5610 5608 5606 5603 5601 5599 5597 5595 5593 5591 5589 5587 5585 5584 5583 5581 5580 5578 5577 5576 5574 5573 5572 5571 5570 5569 5569 5568 5568 5568 5568 5568 5568 5568 5568 5568 5568 5568 5568
5609 5607 5605 5602 5600 5598 5596 5593 5591 5589 5586 5584 5582 5580 5578 5576 5575 5573 5571 5570 5568 5567 5566 5564 5563 5562 5560 5559 5558 5557 5556 5556 5556 5555 5555 5556 5556 5556 5556 5556 5556 5556 5556
Wind_Speed
17 18 18 17 17 17 17 17 17 17 18 19 20 21 21 21 21 21 21 21 21 21 22 21 21 21 20 20 20 20 21 21 20 20 20 21 21 21 21 20 19 18 18
18 18 18 18 18 18 18 18 19 19 20 21 21 21 21 22 22 22 22 22 22 23 23 22 22 22 21 21 21 21 22 22 22 21 21 21 21 22 21 20 20 19 19
19 19 19 19 19 19 19 20 20 21 21 21 21 21 21 21 21 22 22 22 23 23 23 24 23 23 22 22 22 22 22 22 22 22 22 22 21 21 21 21 21 21 20
21 21 21 21 21 21 21 21 22 22 21 21 21 21 21 21 21 22 22 22 22 23 23 23 22 23 22 22 22 22 22 22 22 23 23 22 22 22 21 21 22 22 22
22 22 21 22 22 22 23 23 23 23 22 22 22 21 21 21 22 22 22 22 22 22 22 22 22 22 22 22 22 22 22 22 22 23 23 23 22 22 22 21 21 22 22
23 23 23 23 23 23 23 23 23 23 23 22 22 22 22 22 22 22 23 23 23 22 22 22 22 22 22 22 23 23 22 22 22 23 23 22 22 22 22 22 21 22 22
24 24 24 24 24 24 24 24 24 24 24 23 23 23 23 23 23 23 22 22 23 23 23 22 22 23 23 23 23 23 23 23 22 22 22 22 22 22 22 22 22 22 22
25 25 25 25 25 25 24 24 24 24 24 24 24 24 24 25 24 24 23 23 23 23 24 24 24 24 24 24 24 24 23 23 23 23 23 22 22 23 22 22 22 22 22
26 26 26 26 26 25 24 24 24 24 24 24 24 24 25 25 25 25 24 24 24 25 25 25 24 25 25 24 24 24 24 24 24 24 24 23 23 23 23 23 23 22 23
26 26 26 27 27 26 25 25 25 25 25 25 25 25 25 25 25 25 24 25 25 25 26 26 25 25 25 25 25 25 25 25 25 24 25 24 25 25 25 24 24 23 24
28 27 27 27 27 27 27 26 26 26 25 25 25 25 25 25 25 25 25 25 25 25 26 26 25 25 26 25 26 25 25 26 26 25 25 25 26 26 26 25 25 25 25
28 28 28 28 28 28 28 27 27 27 26 26 26 25 26 26 25 25 25 26 26 25 25 25 25 26 26 26 26 26 26 27 27 26 25 26 26 26 26 26 26 26 26
29 29 29 29 28 28 28 28 28 28 27 27 26 26 25 25 26 26 26 26 26 26 26 26 25 26 26 26 26 27 27 28 27 26 26 27 27 27 27 27 27 27 27
29 29 29 29 29 29 30 30 29 29 28 28 27 27 26 26 26 27 26 26 26 26 26 26 25 26 26 26 26 27 28 28 28 27 27 27 28 28 28 28 28 28 28
29 29 29 29 29 30 30 30 30 30 29 28 28 28 28 27 27 27 27 27 26 26 25 25 26 26 26 26 26 27 28 28 28 28 28 28 28 28 28 29 29 29 29
29 29 29 30 30 30 29 29 29 29 29 29 28 28 28 28 28 28 28 27 27 26 26 26 26 27 27 27 27 27 28 29 29 28 29 29 29 29 29 29 30 30 29
29 29 30 29 30 30 29 29 29 29 30 30 30 29 29 29 29 28 28 27 27 27 27 28 28 28 27 27 27 28 28 29 30 29 30 30 30 30 30 30 30 30 30
28 29 29 29 29 29 29 29 29 29 30 30 30 30 30 29 29 29 29 28 28 29 29 29 29 29 28 28 29 29 29 30 30 30 30 30 31 31 31 31 31 31 31
27 27 28 29 29 29 29 29 29 29 29 29 30 30 30 30 30 29 29 29 29 29 29 29 30 29 30 30 30 31 31 31 31 31 31 32 32 33 33 32 32 32 32
27 27 28 28 29 29 29 29 29 29 29 30 30 30 30 30 30 30 30 30 30 30 30 31 31 31 30 30 31 31 32 32 32 32 32 32 33 34 34 34 34 33 33
27 27 28 29 29 30 30 30 30 30 30 30 30 30 31 31 30 30 30 30 31 31 31 32 32 32 32 32 32 33 33 32 32 33 33 33 34 35 35 35 35 35 35
28 28 29 30 30 30 30 30 30 31 31 31 31 31 31 31 31 31 31 31 31 32 32 32 33 33 33 33 34 34 34 34 33 33 33 34 34 34 34 35 35 35 35
29 29 30 31 31 31 31 31 31 31 31 31 31 32 32 32 31 31 31 31 32 31 31 32 32 32 33 33 33 34 34 35 35 35 35 35 36 36 36 36 36 36 36
30 30 31 31 32 31 31 31 31 31 32 32 32 32 32 32 31 32 32 32 32 32 32 32 32 32 33 33 33 34 35 35 35 35 36 36 36 37 37 36 36 36 36
30 31 31 31 31 31 31 31 31 31 31 32 31 31 32 32 31 32 32 32 32 32 33 33 33 33 32 33 34 35 35 36 36 36 36 37 36 36 36 36 36 36 36
31 31 31 31 30 30 30 30 30 30 30 31 30 30 31 31 31 32 32 32 33 33 33 33 33 33 33 34 34 34 35 35 35 36 36 36 36 36 35 35 35 36 36
Wind_Direction
275 276 275 276 280 283 283 284 283 285 287 286 286 287 287 286 286 282 279 277 275 271 271 273 276 275 273 272 271 270 269 269 269 268 268 267 267 267 266 267 265 262 264
276 278 278 278 280 281 283 283 283 285 288 288 287 288 289 287 286 284 280 277 275 273 271 273 274 273 270 271 272 271 270 269 269 268 266 266 267 267 265 263 261 260 264
276 277 279 278 279 281 282 283 283 283 286 289 290 290 290 288 286 284 281 279 278 274 273 274 274 272 269 269 270 271 270 270 269 268 266 267 266 266 264 262 260 261 264
276 277 278 279 279 280 282 283 283 283 285 287 288 290 291 290 289 287 284 282 280 277 275 275 274 272 270 269 269 269 270 270 268 267 267 266 266 266 264 264 263 262 263
276 278 279 280 281 282 282 283 283 284 284 285 287 288 289 290 291 290 286 285 283 279 277 276 277 278 273 269 269 268 268 268 267 267 268 267 267 266 265 265 265 264 264
277 280 279 282 284 284 284 285 284 283 282 284 285 287 289 290 291 291 288 285 283 281 279 279 280 278 275 270 268 266 267 267 268 269 269 268 266 266 265 264 266 266 265
277 280 282 282 283 285 285 285 286 283 282 283 284 286 287 288 288 289 288 286 283 281 279 280 280 278 275 270 267 266 267 267 268 269 268 266 264 265 266 267 266 265 265
278 280 282 282 283 286 287 285 286 285 284 285 285 285 286 287 287 287 285 284 282 280 280 281 280 279 276 271 267 265 266 266 266 266 267 266 265 265 265 266 265 266 267
279 281 281 282 283 285 286 285 285 285 285 285 285 286 286 287 287 286 284 282 282 282 280 281 280 278 276 271 267 265 264 263 263 264 266 266 266 265 264 265 266 266 267
278 280 281 281 282 284 285 286 286 285 285 284 285 286 286 286 286 284 283 282 283 283 281 281 280 277 275 271 268 264 262 260 261 263 265 265 265 265 265 266 266 265 266
277 279 280 281 282 284 284 285 286 286 285 285 285 286 286 286 285 283 281 281 282 282 283 282 278 276 274 271 268 265 262 260 261 263 264 265 265 265 266 266 266 266 265
277 279 280 280 281 283 283 284 285 285 286 285 285 286 286 286 285 283 283 282 282 283 283 282 279 277 273 271 269 266 262 261 261 262 262 264 265 265 264 265 265 266 266
277 278 280 280 280 282 283 284 284 283 284 284 284 284 285 285 285 284 283 283 283 283 283 283 281 278 275 272 269 267 264 263 262 262 262 264 265 264 264 265 265 266 267
277 277 277 280 281 282 283 283 283 282 282 282 282 283 284 283 284 284 283 283 283 282 282 282 281 279 278 275 272 268 266 265 264 263 263 264 266 264 264 265 266 266 266
276 276 277 279 281 283 284 284 282 282 282 281 281 282 282 282 282 282 282 282 282 282 282 281 281 279 279 276 273 270 266 265 264 263 263 264 265 265 265 266 267 267 266
276 277 278 280 281 283 284 284 282 282 281 280 281 282 283 283 281 280 279 279 280 280 280 281 280 280 278 276 273 270 269 267 265 265 265 264 265 266 265 266 267 268 267
277 277 278 279 280 281 283 283 280 279 279 280 281 282 282 283 282 280 278 278 279 279 279 279 279 279 277 276 274 271 270 269 267 266 266 264 265 265 266 267 267 267 267
278 278 279 280 281 282 282 282 280 279 279 279 280 281 281 282 282 281 279 278 279 279 278 278 278 277 276 275 274 273 271 270 269 268 267 265 265 265 266 267 267 267 267
281 280 281 282 284 283 283 282 281 280 279 279 279 280 280 280 280 280 280 279 279 279 278 277 276 277 276 274 274 274 273 272 270 269 268 266 266 266 266 267 267 267 268
282 283 284 285 286 285 282 282 281 280 280 280 280 280 280 280 280 280 281 280 279 278 277 275 274 274 274 273 272 273 273 272 270 270 268 267 268 268 267 267 267 267 268
285 285 284 286 287 286 283 281 281 281 281 281 281 280 280 280 280 280 279 279 278 278 276 274 273 272 272 272 272 272 272 271 270 269 269 268 268 269 268 267 267 267 267
285 286 286 287 287 287 285 284 283 281 282 282 281 281 281 280 280 278 278 278 278 277 276 275 275 274 273 272 272 271 270 269 269 269 270 270 270 270 269 267 267 267 266
285 287 288 288 288 287 285 284 283 283 283 283 282 282 281 280 279 279 279 279 279 278 277 277 276 275 275 274 272 271 270 270 269 269 270 270 271 270 270 269 268 267 267
286 287 289 289 287 286 285 284 283 282 283 284 283 282 281 281 280 279 280 281 280 279 278 277 277 278 278 277 274 272 270 270 270 270 269 270 270 270 269 269 268 268 268
287 288 289 289 287 286 285 284 285 285 284 284 283 282 281 281 280 280 281 281 280 279 278 277 278 278 278 277 276 274 272 271 270 269 269 269 269 269 268 268 268 269 269
288 288 288 288 288 287 286 286 286 285 285 285 284 283 283 282 281 281 282 282 280 280 280 280 279 278 278 278 278 277 275 272 270 269 269 268 268 269 268 268 269 269 270